Location: CAS DS-2
(40.5268°N, 76.2220°W)
Time: 03:52:41
(UTC-05:00)

X-37B - Visible Passes

Search period start: 01 December 2020 00:00
Search period end: 11 December 2020 00:00
Orbit: 384 x 390 km, 45.0° (Epoch: 26 November)

Date Brightness Start Highest point End Pass type
(mag) Time Alt. Az. Time Alt. Az. Time Alt. Az.
01 Dec 2.3 18:36:29 10° WNW 18:38:33 28° NW 18:38:33 28° NW visible
02 Dec 1.4 17:37:43 10° W 17:40:45 40° N 17:42:35 20° NE visible
02 Dec 4.0 19:14:45 10° WNW 19:14:52 11° WNW 19:14:52 11° WNW visible
03 Dec 1.6 18:16:06 10° WNW 18:18:55 34° N 18:18:55 34° N visible
04 Dec 1.5 17:17:23 10° WNW 17:20:20 35° N 17:23:00 12° ENE visible
04 Dec 3.2 18:54:14 10° WNW 18:55:17 19° NW 18:55:17 19° NW visible
05 Dec 1.3 17:55:39 10° WNW 17:58:39 38° N 17:59:26 32° NE visible
06 Dec 1.6 18:33:41 10° WNW 18:35:55 41° NW 18:35:55 41° NW visible
07 Dec 0.9 17:35:08 10° WNW 17:38:14 48° NNE 17:40:15 19° E visible
07 Dec 3.7 19:11:51 10° W 19:12:33 15° W 19:12:33 15° W visible
08 Dec 0.7 18:13:10 10° WNW 18:16:19 69° SSW 18:17:01 48° SE visible
09 Dec 0.5 17:14:35 10° WNW 17:17:45 72° NNE 17:20:54 10° ESE visible
09 Dec 3.0 18:51:40 10° W 18:54:01 21° SW 18:54:01 21° SW visible
10 Dec 2.0 17:52:44 10° W 17:55:43 38° SSW 17:58:41 10° SE visible
